Location: Coleto Creek Park and Reservoir
(28.7196°N, 97.1740°W)
Time: 04:33:36
(UTC-06:00)

Hubble Space Telescope - Visible Passes

Search period start: 27 November 2014 00:00
Search period end: 07 December 2014 00:00
Orbit: 546 x 549 km, 28.5° (Epoch: 26 November)

Date Brightness Start Highest point End Pass type
(mag) Time Alt. Az. Time Alt. Az. Time Alt. Az.
27 Nov 2.8 04:38:39 27° E 04:38:39 27° E 04:40:35 10° E visible
27 Nov 0.9 06:14:11 13° W 06:17:48 70° S 06:21:57 10° ESE visible
28 Nov 3.2 04:31:36 21° E 04:31:36 21° E 04:33:05 10° E visible
28 Nov 1.1 06:07:08 17° W 06:10:16 60° SSW 06:14:23 10° ESE visible
29 Nov 3.6 04:24:32 17° E 04:24:32 17° E 04:25:34 10° E visible
29 Nov 1.3 06:00:04 20° W 06:02:42 50° SSW 06:06:45 10° ESE visible
30 Nov 3.9 04:17:28 14° E 04:17:28 14° E 04:18:02 10° E visible
30 Nov 1.6 05:53:00 23° WSW 05:55:07 40° SSW 05:59:03 10° SE visible
01 Dec 4.1 04:10:24 10° ESE 04:10:24 10° ESE 04:10:28 10° ESE visible
01 Dec 1.9 05:45:56 24° WSW 05:47:31 32° SSW 05:51:15 10° SE visible
02 Dec 2.2 05:38:53 23° SW 05:39:53 25° SSW 05:43:21 10° SSE visible
03 Dec 2.5 05:31:51 19° SSW 05:32:13 20° SSW 05:35:16 10° SSE visible
04 Dec 3.0 05:24:49 15° SSW 05:24:49 15° SSW 05:26:56 10° S visible
05 Dec 3.4 05:17:48 10° SSW 05:17:48 10° SSW 05:17:56 10° SSW visible
